Last 30 Days

Alpine-Summit 8643' (Ward Mt.)

Daily Data | America/Los_Angeles
as of 5/24/19 2:42 PM PDT
Date Daily Max Temp (°F) Max Temp Time Daily Min Temp (°F) Min Temp Time Wind Spd (mph) Daily Max Wind (mph) Max RH (%) Min RH (%) Wet Bulb (°F)
5/23/19 48.6 1320 32.0 0005 19.2 58.1 100 58 36.2
5/22/19 39.1 1717 25.0 0018 25.6 58.1 100 95 31.2
5/21/19 32.7 1503 23.5 0612 38.7 85.5 100 98 27.1
5/20/19 32.0 1511 21.4 0151 31.1 78.8 100 97 27.1
5/19/19 32.7 1315 21.6 2243 34.0 77.0 100 97 26.5
5/18/19 34.8 1311 25.6 0437 24.3 65.8 100 95 29.1
5/17/19 34.1 1506 23.3 0357 30.0 79.3 100 98 28.5
5/16/19 32.4 0012 22.9 0628 56.1 98.0 100 97 26.3
5/15/19 39.6 0000 31.2 2333 42.7 97.7 100 71 34.2
5/14/19 50.7 1608 38.0 0324 27.2 51.1 73 37 35.7
5/13/19 52.9 1602 40.0 2153 27.2 51.0 83 36 38.4
5/12/19 60.6 1318 44.7 0609 12.7 43.1 84 26 42.1
5/11/19 65.8 1718 37.6 0333 13.6 46.9 64 21 37.8
5/10/19 54.1 1730 29.5 0550 41.0 86.8 80 27 32.4
5/9/19 54.1 1632 35.3 2356 28.8 68.5 74 37 36.1
5/8/19 61.7 1601 37.2 0445 16.1 54.1 92 34 39.0
5/7/19 55.0 1506 38.1 0542 11.8 37.6 86 30 39.3
5/6/19 57.0 1340 37.6 0619 18.1 49.7 91 46 38.2
5/5/19 61.5 1453 38.6 0453 12.9 50.0 93 29 38.0
5/4/19 57.6 1703 37.2 0508 7.9 30.8 84 21 36.5
5/3/19 54.9 1803 36.1 0023 11.2 28.9 78 34 37.0
5/2/19 53.0 1619 27.8 0541 10.9 32.6 86 24 32.2
5/1/19 46.2 1530 24.0 0553 20.6 39.8 89 42 28.8
4/30/19 38.0 1549 25.3 2235 37.5 87.7 100 75 31.0
4/29/19 48.0 1434 33.9 2353 21.7 43.7 100 27 34.4
4/28/19 54.8 1710 37.9 0607 21.5 47.6 68 16 33.8
4/27/19 52.8 1600 38.8 2328 27.3 54.7 69 34 37.0
4/26/19 55.5 1544 43.2 0620 26.6 47.6 70 34 39.0
4/25/19 58.5 1534 33.6 1018 16.8 44.1 83 39 41.7
4/24/19 61.0 1714 44.3 0625 13.0 33.3 83 42 43.7
Max 65.8 - 44.7 - 56.1 98.0 100 98 43.7
Avg - - - - 24.2 - - - 34.6
Min 32.0 - 21.4 - 7.9 28.9 64 16 26.3